Погода в Таврово

Россия / Белгородская область     50°30′18″N   36°34′34″E
темп.,
°C
ветер,
м/с
пор.,
м/с
влажн.,
%
обл.,
%
осадки,
мм/ч
давл.,
гПа
погр.,
м
28 сентября, вт
вт2800:00+6с36925 0.0 1021112
03:00+8ссз3687100 0.0 1021198
06:00+8с3891100 0.2 1022270
09:00+10ссв478099 0.3 1022511
12:00+12св4567100 0.2 10241038
15:00+11св566599 0.5 1025911
18:00+10св587088 0.1 1026477
21:00+8всв5975100 0.1 1028557
29 сентября, ср
ср2900:00+8всв4879100 0.0 1029639
03:00+7всв487999 0.0 1030608
06:00+7св5877100 0.0 1031565
09:00+8всв687116 0.0 1032675
12:00+11всв565028 0.0 10321357
15:00+12св55374 0.0 10311491
18:00+9св36490 0.0 1031124
21:00+6св38600 0.0 1033147
30 сентября, чт
чт3000:00+5св34655 0.0 103354
03:00+4св33695 0.0 103330
06:00+3св33715 0.0 103434
09:00+8св35550 0.0 1034312
12:00+12всв44400 0.0 10341114
15:00+13всв34372 0.0 10331384
18:00+10св33510 0.0 103227
21:00+7всв34620 0.0 103447
1 октября, пт
пт100:00+6всв33680 0.0 103428
03:00+5всв22745 0.0 103522
06:00+4всв22795 0.0 103525
09:00+9всв346024 0.0 1035288
12:00+13в34445 0.0 10351156
15:00+14в34405 0.0 10341488
18:00+11в33545 0.0 103432
21:00+8в35655 0.0 103566
2 октября, сб
сб200:00+7в33705 0.0 103541
03:00+6в33755 0.0 103531
06:00+5в22795 0.0 103426
09:00+10в346111 0.0 1034277
12:00+13в455199 0.0 1033850
15:00+12в4556100 0.0 1033579
18:00+10всв366620 0.0 1032171
21:00+8в368227 0.0 103296